Location: Cisewo
(53.3833°N, 14.9000°E)
Time: 10:46:35
(UTC+00:00)

Meteor 1-25 Rocket - Pass Details

Date: 18 April 2021
Orbit: 837 x 891 km, 81.2° (Epoch: 14 May)

Event Time Altitude Azimuth Distance (km) Brightness Sun altitude
Rises 21:58:37 0° 346° (NNW) 3,444 8.8 -24.2°
Reaches altitude 10° 22:01:02 10° 348° (NNW) 2,512 7.7 -24.3°
Maximum altitude 22:06:46 80° 76° (ENE) 890 4.2 -24.5°
Enters shadow 22:07:49 61° 148° (SSE) 990 4.2 -24.5°
